Regional Weather Roundup
Issued by NWS

Home | Current Version | Previous Version | Graphics & Text | Print | Product List | Glossary On
Versions: 1 2 3 4 5 6 7 8 9 10 11 12 13 14 15 16 17 18 19 20 21 22 23 24 25 26 27 28 29 30 31 32 33 34 35 36 37 38 39 40 41 42 43 44 45 46 47 48 49 50
000
ASUS45 KBOI 021110
RWRID

IDAHO REGIONAL WEATHER ROUNDUP
NATIONAL WEATHER SERVICE BOISE ID
500 AM MDT THU JUL 02 2015

NOTE: "FAIR" INDICATES FEW OR NO CLOUDS BELOW 12000 FEET
WITH NO SIGNIFICANT WEATHER AND/OR OBSTRUCTIONS TO VISIBILITY

IDZ012-014-021200-
SOUTHWEST IDAHO


CITY           SKY/WX    TMP DP  RH WIND       PRES   REMARKS
BOISE          CLEAR     72  50  45 S3        29.98R
CALDWELL       CLEAR     72  45  37 W5        29.97R
MOUNTAIN HOME  CLEAR     74  43  33 NW8       29.97R
$$

IDZ016-017-021200-
SOUTHCENTRAL IDAHO


CITY           SKY/WX    TMP DP  RH WIND       PRES   REMARKS
BURLEY         CLEAR     61  51  70 S5        30.05S
JEROME         CLEAR     63  47  55 E3        30.05R
TWIN FALLS     CLEAR     79  40  24 S15       30.02S
$$

IDZ019>023-021200-
SOUTHEAST IDAHO


CITY           SKY/WX    TMP DP  RH WIND       PRES   REMARKS
IDAHO FALLS    CLEAR     59  54  83 N8        30.10R
POCATELLO      CLEAR     62  57  83 SW8       30.07R
REXBURG        CLEAR     59  53  80 E5        30.11S
$$

IDZ006-010-011-018-031-032-021200-
CENTRAL IDAHO MOUNTAINS


CITY           SKY/WX    TMP DP  RH WIND       PRES   REMARKS
MCCALL         CLEAR     53  45  74 W5        30.15R
STANLEY          N/A     43  33  68 CALM      30.29S
SALMON         CLEAR     55  45  67 CALM      30.13R
CHALLIS        CLEAR     61  42  49 SE3       30.17R
$$

IDZ002-004-006-007-026-021200-
NORTHERN IDAHO


CITY           SKY/WX    TMP DP  RH WIND       PRES   REMARKS
LEWISTON       CLEAR     70  47  43 SE3       29.96R
LOWELL           N/A     61  53  75 NW3       30.05R
COEUR D`ALENE  CLEAR     63  52  67 E3        30.01R
MULLAN PASS    CLEAR     66  40  38 CALM      30.24R
$$



USA.gov is the U.S. government's official web portal to all federal, state and local government web resources and services.